COSMOS 2252

Satellite information

Favourite Embed

Satellite Type and Status

PAYLOADIN ORBIT

Key statistics

Satellite COSMOS 2252 at a glance.

Uptime

11764

Days in orbit

Revolutions

≈ 12.6

Per day

Orbit

LEO

Low Earth Orbit

Inclination

82.6

Latest

Satellite identification and parameters

Extended collection of information and parameters for COSMOS 2252.

Object identification

Identified? True

Debris? False

Object name: COSMOS 2252

International designator: 1993-038A

Object number (NORAD): 22687

Object ID (CCSDS): 22687

Country: COMMONWEALTH OF INDEPENDENT STATES (CIS)

Current information (Y/N): Y

RCS size: MEDIUM

Orbital parameters

Period: 113.985 minutes

Inclination: 82.5806 deg

SMA: 7787.395 km

Apoapsis: 1414.804 km

Periapsis: 1403.716 km

RAAN: 48.9578 deg

Eccentricy: 0.00071189

Argument of periapsis: 257.9705 deg

Mean anomaly: 217.0358 deg

Mean motion: 12.63323088 rev/day

Mean motion (dot): 0.00000016 rev/day2

B* drag term: 0.00003156509 1/REarth

Two-line elements (TLE)

Creation date: Sept. 7, 2025, 3:09 a.m.

Reference frame: TEME

Reference center: EARTH

Epoch: Sept. 6, 2025, 10:10 p.m. UTC

TLE line 0: 0 COSMOS 2252

TLE line 1: 1 22687U 93038A 25249.92424924 .00000016 00000-0 31565-4 0 9997

TLE line 2: 2 22687 82.5806 48.9578 0007119 257.9705 217.0358 12.63323088484750

Live tracking on map

Real-time ground track for satellite COSMOS 2252.

In-orbit conjunctions

There are no conjunctions computed for COSMOS 2252, at the moment. Check back to stay up to date, as we update our databases every day.

Go to all conjunctions

Associated space launch

Second generation store-dump military communications satellites

COSMOS 2252 was lifted into orbit during the mission ‘Tsiklon-3 | Strela-3 95 to 100’, on board a Tsiklon-3 space rocket.

The launch took place on June 24, 1993, 4:12 a.m. from 32/1.

For more information about the launch, click the button.

Launch to space Tsiklon-3 | Strela-3 95 to 100
Tsiklon-3 | Strela-3 95 to 100

Agency: N/A

Status: Launch Successful

Launch date: June 24, 1993, 4:12 a.m. UTC

Rocket: Tsiklon-3

Launch pad: 32/1

Location: Plesetsk Cosmodrome, Russian Federation

...

Latest news about this satellite

There are no fresh news available about this satellite. Check back as we update our databases every day.


Newsletter sign-up

Weekly statistics, charts and insights to help you stay on top of the space industry.